When you browse on this site, cookies collect data to enhance your experience and personalize the content and advertising you see.
Visit our Privacy Policy to learn more. By continuing to use the site, you agree to this use of cookies and data.
  • In Hungary
  • List of Countries
  • For 7 days
  • Water Temperature
  • Weather Map
  • News
  • Weather Widgets
  • user-avatar
    Login

    Hourly Weather Buctzotz

    Today, 15 November, Friday

    Time Temperature Precipitation Wind Pressure Humidity
    00:00 +24°C° 0 mm 1 mps 760 mmHg 97%
    01:00 +24°C° 0.5 mm 1 mps 760 mmHg 97%
    02:00 +24°C° 0.5 mm 1 mps 759 mmHg 97%
    03:00 +24°C° 0.5 mm 1 mps 759 mmHg 98%
    04:00 +24°C° 0.6 mm 1 mps 759 mmHg 98%
    05:00 +24°C° 0.6 mm 1 mps 760 mmHg 98%
    06:00 +24°C° 0.6 mm 1 mps 760 mmHg 98%
    07:00 +25°C° 1.9 mm 2 mps 760 mmHg 96%
    08:00 +26°C° 1.9 mm 3 mps 761 mmHg 94%
    09:00 +27°C° 1.9 mm 4 mps 761 mmHg 92%
    10:00 +28°C° 0.8 mm 4 mps 761 mmHg 86%
    11:00 +28°C° 0.8 mm 5 mps 761 mmHg 81%
    12:00 +29°C° 0.8 mm 5 mps 760 mmHg 76%
    13:00 +28°C° 0.3 mm 5 mps 760 mmHg 78%
    14:00 +28°C° 0.3 mm 5 mps 760 mmHg 79%
    15:00 +27°C° 0.3 mm 6 mps 759 mmHg 81%
    16:00 +26°C° 0.1 mm 5 mps 760 mmHg 83%
    17:00 +26°C° 0.1 mm 5 mps 760 mmHg 85%
    18:00 +25°C° 0.1 mm 4 mps 761 mmHg 87%
    19:00 +23°C° 0 mm 4 mps 761 mmHg 86%
    20:00 +23°C° 0 mm 4 mps 762 mmHg 85%
    21:00 +23°C° 0 mm 4 mps 762 mmHg 84%
    22:00 +23°C° 0 mm 4 mps 762 mmHg 84%
    23:00 +22°C° 0 mm 3 mps 762 mmHg 85%

    Tomorrow, 16 November, Saturday

    Time Temperature Precipitation Wind Pressure Humidity
    00:00 +22°C° 0 mm 3 mps 762 mmHg 86%
    01:00 +22°C° 0 mm 3 mps 762 mmHg 84%
    02:00 +22°C° 0 mm 3 mps 761 mmHg 83%
    03:00 +24°C° 0 mm 3 mps 761 mmHg 81%
    04:00 +22°C° 0 mm 3 mps 761 mmHg 82%
    05:00 +21°C° 0 mm 3 mps 762 mmHg 83%
    06:00 +21°C° 0 mm 3 mps 762 mmHg 84%
    07:00 +22°C° 0 mm 3 mps 762 mmHg 80%
    08:00 +24°C° 0 mm 3 mps 763 mmHg 75%
    09:00 +25°C° 0 mm 4 mps 763 mmHg 71%
    10:00 +25°C° 0 mm 4 mps 763 mmHg 68%
    11:00 +25°C° 0 mm 4 mps 762 mmHg 65%
    12:00 +25°C° 0 mm 3 mps 762 mmHg 63%
    13:00 +25°C° 0 mm 3 mps 761 mmHg 62%
    14:00 +25°C° 0 mm 3 mps 761 mmHg 61%
    15:00 +25°C° 0 mm 3 mps 760 mmHg 60%
    16:00 +24°C° 0 mm 3 mps 761 mmHg 65%
    17:00 +21°C° 0 mm 2 mps 761 mmHg 70%
    18:00 +20°C° 0 mm 2 mps 761 mmHg 74%
    19:00 +20°C° 0 mm 2 mps 762 mmHg 73%
    20:00 +21°C° 0 mm 1 mps 762 mmHg 71%
    21:00 +22°C° 0 mm 1 mps 762 mmHg 69%
    22:00 +22°C° 0 mm 1 mps 762 mmHg 69%
    23:00 +22°C° 0 mm 1 mps 762 mmHg 68%

    Day after tomorrow, 17 November, Sunday

    Time Temperature Precipitation Wind Pressure Humidity
    00:00 +22°C° 0 mm 1 mps 761 mmHg 68%
    01:00 +22°C° 0 mm 1 mps 761 mmHg 68%
    02:00 +22°C° 0 mm 1 mps 761 mmHg 68%
    03:00 +22°C° 0 mm 1 mps 760 mmHg 68%
    04:00 +21°C° 0 mm 1 mps 761 mmHg 71%
    05:00 +20°C° 0 mm 1 mps 761 mmHg 74%
    06:00 +19°C° 0 mm 1 mps 761 mmHg 77%
    07:00 +21°C° 0 mm 1 mps 761 mmHg 70%
    08:00 +23°C° 0 mm 2 mps 761 mmHg 64%
    09:00 +25°C° 0 mm 2 mps 762 mmHg 58%
    10:00 +25°C° 0 mm 2 mps 761 mmHg 59%
    11:00 +26°C° 0 mm 2 mps 761 mmHg 60%
    12:00 +26°C° 0 mm 2 mps 760 mmHg 60%
    13:00 +25°C° 0 mm 2 mps 760 mmHg 62%
    14:00 +25°C° 0 mm 2 mps 759 mmHg 64%
    15:00 +25°C° 0 mm 2 mps 759 mmHg 65%
    16:00 +24°C° 0 mm 1 mps 759 mmHg 68%
    17:00 +23°C° 0 mm 1 mps 759 mmHg 70%
    18:00 +23°C° 0 mm 1 mps 759 mmHg 73%
    19:00 +22°C° 0 mm 1 mps 760 mmHg 76%
    20:00 +22°C° 0 mm 1 mps 760 mmHg 79%
    21:00 +22°C° 0 mm 1 mps 760 mmHg 82%
    22:00 +22°C° 0.1 mm 1 mps 760 mmHg 82%
    23:00 +22°C° 0.1 mm 1 mps 760 mmHg 83%

    18 November, Monday

    Time Temperature Precipitation Wind Pressure Humidity
    00:00 +22°C° 0.1 mm 1 mps 760 mmHg 83%
    01:00 +22°C° 0.1 mm 1 mps 760 mmHg 83%
    02:00 +22°C° 0.1 mm 1 mps 759 mmHg 84%
    03:00 +22°C° 0.1 mm 1 mps 759 mmHg 84%
    04:00 +22°C° 0 mm 1 mps 759 mmHg 83%
    05:00 +22°C° 0 mm 1 mps 760 mmHg 83%
    06:00 +21°C° 0 mm 1 mps 760 mmHg 82%
    07:00 +23°C° 0 mm 1 mps 760 mmHg 76%
    08:00 +25°C° 0 mm 1 mps 760 mmHg 69%
    09:00 +26°C° 0 mm 1 mps 761 mmHg 62%
    10:00 +27°C° 0 mm 2 mps 760 mmHg 60%
    11:00 +28°C° 0 mm 2 mps 760 mmHg 57%
    12:00 +28°C° 0 mm 2 mps 759 mmHg 54%
    13:00 +28°C° 0.1 mm 3 mps 759 mmHg 60%
    14:00 +27°C° 0.1 mm 3 mps 758 mmHg 66%
    15:00 +26°C° 0.1 mm 4 mps 758 mmHg 72%
    16:00 +25°C° 0.1 mm 3 mps 758 mmHg 78%
    17:00 +22°C° 0.1 mm 3 mps 759 mmHg 84%
    18:00 +21°C° 0.1 mm 2 mps 759 mmHg 91%
    19:00 +20°C° 0 mm 2 mps 759 mmHg 91%
    20:00 +20°C° 0 mm 2 mps 760 mmHg 92%
    21:00 +21°C° 0 mm 1 mps 760 mmHg 92%
    22:00 +21°C° 0 mm 1 mps 760 mmHg 92%
    23:00 +21°C° 0 mm 1 mps 760 mmHg 92%

    19 November, Tuesday

    Time Temperature Precipitation Wind Pressure Humidity
    00:00 +21°C° 0 mm 1 mps 760 mmHg 91%
    01:00 +21°C° 0 mm 1 mps 760 mmHg 92%
    02:00 +21°C° 0 mm 1 mps 760 mmHg 92%
    03:00 +20°C° 0 mm 1 mps 759 mmHg 93%
    04:00 +20°C° 0 mm 1 mps 760 mmHg 93%
    05:00 +20°C° 0 mm 1 mps 760 mmHg 93%
    06:00 +20°C° 0 mm 1 mps 760 mmHg 93%
    07:00 +22°C° 0.1 mm 1 mps 761 mmHg 86%
    08:00 +24°C° 0.1 mm 1 mps 761 mmHg 79%
    09:00 +26°C° 0.1 mm 1 mps 761 mmHg 72%
    10:00 +26°C° 0.1 mm 2 mps 761 mmHg 69%
    11:00 +27°C° 0.1 mm 2 mps 761 mmHg 65%
    12:00 +27°C° 0.1 mm 3 mps 760 mmHg 62%
    13:00 +27°C° 0.1 mm 3 mps 760 mmHg 62%
    14:00 +27°C° 0.1 mm 3 mps 759 mmHg 62%
    15:00 +27°C° 0.1 mm 3 mps 759 mmHg 62%
    16:00 +25°C° 0 mm 2 mps 759 mmHg 68%
    17:00 +24°C° 0 mm 2 mps 760 mmHg 73%
    18:00 +21°C° 0 mm 2 mps 760 mmHg 79%
    19:00 +21°C° 0 mm 1 mps 760 mmHg 80%
    20:00 +21°C° 0 mm 1 mps 761 mmHg 82%
    21:00 +20°C° 0 mm 1 mps 761 mmHg 83%
    22:00 +20°C° 0 mm 1 mps 761 mmHg 84%
    23:00 +20°C° 0 mm 1 mps 761 mmHg 85%

    20 November, Wednesday

    Time Temperature Precipitation Wind Pressure Humidity
    00:00 +20°C° 0 mm 1 mps 761 mmHg 85%
    01:00 +20°C° 0 mm 1 mps 761 mmHg 86%
    02:00 +19°C° 0 mm 1 mps 761 mmHg 86%
    03:00 +19°C° 0 mm 1 mps 761 mmHg 87%
    04:00 +19°C° 0 mm 1 mps 761 mmHg 87%
    05:00 +19°C° 0 mm 1 mps 761 mmHg 87%
    06:00 +19°C° 0 mm 1 mps 761 mmHg 87%
    07:00 +21°C° 0 mm 1 mps 762 mmHg 80%
    08:00 +24°C° 0 mm 2 mps 762 mmHg 72%
    09:00 +26°C° 0 mm 2 mps 762 mmHg 64%
    10:00 +27°C° 0 mm 2 mps 762 mmHg 62%
    11:00 +28°C° 0 mm 3 mps 761 mmHg 59%
    12:00 +29°C° 0 mm 3 mps 760 mmHg 56%
    13:00 +29°C° 0 mm 3 mps 760 mmHg 58%
    14:00 +28°C° 0 mm 3 mps 760 mmHg 59%
    15:00 +28°C° 0 mm 3 mps 759 mmHg 60%
    16:00 +27°C° 0 mm 3 mps 759 mmHg 65%
    17:00 +25°C° 0 mm 3 mps 760 mmHg 70%
    18:00 +22°C° 0 mm 3 mps 760 mmHg 75%
    19:00 +22°C° 0 mm 3 mps 760 mmHg 77%
    20:00 +21°C° 0 mm 3 mps 761 mmHg 79%
    21:00 +21°C° 0 mm 3 mps 761 mmHg 81%
    22:00 +20°C° 0 mm 2 mps 761 mmHg 83%
    23:00 +20°C° 0 mm 2 mps 761 mmHg 86%
    Show more